TimeCDT,TemperatureF,Dew PointF,Humidity,Sea Level PressureIn,VisibilityMPH,Wind Direction,Wind SpeedMPH,Gust SpeedMPH,PrecipitationIn,Events,Conditions,WindDirDegrees,DateUTC
12:53 AM,62.1,37.0,39,29.97,10.0,South,11.5,19.6,N/A,,Partly Cloudy,190,2013-03-10 06:53:00
1:53 AM,61.0,37.9,42,29.97,10.0,South,12.7,-,N/A,,Clear,180,2013-03-10 07:53:00
3:53 AM,61.0,37.9,42,29.96,10.0,South,10.4,-,N/A,,Clear,170,2013-03-10 08:53:00
4:53 AM,61.0,37.9,42,29.94,10.0,SSE,10.4,19.6,N/A,,Clear,160,2013-03-10 09:53:00
5:53 AM,60.1,37.0,42,29.92,10.0,SSE,11.5,23.0,N/A,,Clear,150,2013-03-10 10:53:00
7:53 AM,57.9,39.9,51,29.92,10.0,SSE,12.7,23.0,N/A,,Clear,160,2013-03-10 12:53:00
8:53 AM,59.0,39.9,49,29.90,10.0,SSE,13.8,24.2,N/A,,Clear,150,2013-03-10 13:53:00
9:53 AM,60.1,39.0,46,29.91,10.0,SSE,15.0,24.2,N/A,,Partly Cloudy,160,2013-03-10 14:53:00
10:53 AM,62.1,42.1,48,29.90,10.0,SSE,16.1,26.5,N/A,,Partly Cloudy,160,2013-03-10 15:53:00
11:53 AM,64.9,45.0,48,29.87,10.0,SSE,17.3,28.8,N/A,,Clear,160,2013-03-10 16:53:00
12:53 PM,66.9,48.9,52,29.86,10.0,South,21.9,35.7,N/A,,Scattered Clouds,180,2013-03-10 17:53:00
1:53 PM,66.0,48.9,54,29.83,10.0,South,16.1,29.9,N/A,,Partly Cloudy,180,2013-03-10 18:53:00
2:53 PM,66.0,50.0,56,29.81,10.0,South,20.7,35.7,N/A,,Overcast,180,2013-03-10 19:53:00
3:53 PM,64.0,53.1,67,29.78,10.0,South,16.1,34.5,0.02,Rain,Light Rain,170,2013-03-10 20:53:00
4:53 PM,62.1,54.0,75,29.79,8.0,SW,16.1,24.2,0.01,Rain,Light Rain,230,2013-03-10 21:53:00
5:05 PM,57.2,53.6,88,29.80,2.5,WNW,17.3,29.9,0.08,Rain,Heavy Rain,290,2013-03-10 22:05:00
5:09 PM,55.4,53.6,94,29.80,3.0,West,13.8,28.8,0.09,Rain,Light Rain,280,2013-03-10 22:09:00
5:22 PM,53.6,50.0,88,29.82,9.0,WNW,13.8,-,0.11,Rain,Light Rain,300,2013-03-10 22:22:00
5:50 PM,51.8,50.0,94,29.86,1.8,NW,12.7,-,0.29,Rain,Heavy Rain,310,2013-03-10 22:50:00
5:53 PM,52.0,50.0,93,29.85,1.8,NW,9.2,-,0.32,Rain,Heavy Rain,310,2013-03-10 22:53:00
6:01 PM,51.8,50.0,94,29.81,2.0,North,6.9,-,0.06,Rain,Heavy Rain,350,2013-03-10 23:01:00
6:30 PM,51.8,50.0,94,29.84,1.5,Calm,Calm,-,0.24,Rain,Heavy Rain,0,2013-03-10 23:30:00
6:38 PM,51.8,48.2,88,29.83,3.0,North,3.5,-,0.28,Rain,Heavy Rain,360,2013-03-10 23:38:00
6:53 PM,51.1,50.0,96,29.81,4.0,East,5.8,-,0.37,Rain,Heavy Rain,90,2013-03-10 23:53:00
7:53 PM,51.1,50.0,96,29.81,5.0,East,5.8,-,0.12,Rain,Rain,100,2013-03-11 00:53:00
8:21 PM,51.8,51.8,100,29.82,4.0,South,3.5,-,0.09,Rain,Rain,170,2013-03-11 01:21:00
8:36 PM,51.8,51.8,100,29.83,5.0,South,3.5,-,0.14,Rain,Light Rain,190,2013-03-11 01:36:00
8:53 PM,51.1,51.1,100,29.83,4.0,Calm,Calm,-,0.19,Rain,Rain,0,2013-03-11 01:53:00
9:05 PM,51.8,51.8,100,29.85,7.0,South,4.6,-,0.02,Rain,Light Rain,190,2013-03-11 02:05:00
9:19 PM,51.8,51.8,100,29.81,7.0,Calm,Calm,-,0.05,Rain,Light Rain,0,2013-03-11 02:19:00
9:41 PM,51.8,51.8,100,29.84,8.0,SSW,4.6,-,0.07,Rain,Rain,200,2013-03-11 02:41:00
9:53 PM,52.0,51.1,97,29.84,4.0,SSW,5.8,-,0.12,Rain,Rain,200,2013-03-11 02:53:00
10:53 PM,53.1,51.1,93,29.83,7.0,South,8.1,-,0.23,Rain,Rain,190,2013-03-11 03:53:00
11:53 PM,52.0,51.1,97,29.82,8.0,South,5.8,-,0.12,Rain,Light Rain,190,2013-03-11 04:53:00
12:20 AM,51.8,51.8,100,29.84,6.0,SW,5.8,-,0.06,Rain,Rain,220,2013-03-11 05:20:00
12:30 AM,51.8,50.0,94,29.83,5.0,SSW,6.9,-,0.09,Rain,Rain,200,2013-03-11 05:30:00
12:53 AM,52.0,50.0,93,29.82,7.0,South,6.9,-,0.15,Rain,Light Rain,180,2013-03-11 05:53:00